| time (UTC) | temp F | wind direction | speed knots | gust knots | rain 1hr in | rain 24hr in | rain mn in | humidity % | barometer mb |
| 20260506021444 | 60 | 95 | 0.9 | 5.2 | 0.00 | 0.01 | 0.01 | 86 | 1012.7 |
| 20260506020942 | 60 | 291 | 1.7 | 5.2 | 0.00 | 0.01 | 0.01 | 86 | 1012.7 |
| 20260506020442 | 60 | 234 | 0.0 | 5.2 | 0.00 | 0.01 | 0.01 | 86 | 1012.6 |
| 20260506015940 | 60 | 310 | 0.0 | 5.2 | 0.00 | 0.01 | 0.01 | 86 | 1012.8 |
| 20260506015440 | 60 | 299 | 1.7 | 7.0 | 0.00 | 0.01 | 0.01 | 86 | 1012.7 |
| 20260506014937 | 60 | 273 | 0.9 | 7.0 | 0.00 | 0.01 | 0.01 | 86 | 1012.9 |
| 20260506014803 | 60 | 182 | 0.9 | 6.1 | 0.00 | 0.01 | 0.01 | 86 | 1012.8 |
| 20260506014437 | 60 | 262 | 1.7 | 3.5 | 0.00 | 0.01 | 0.01 | 86 | 1013.0 |
| 20260506013943 | 60 | 249 | 2.6 | 5.2 | 0.00 | 0.01 | 0.01 | 86 | 1012.9 |
| 20260506012934 | 60 | 343 | 0.9 | 7.0 | 0.00 | 0.01 | 0.01 | 86 | 1012.7 |
| 20260506012751 | 61 | 267 | 3.5 | 5.2 | 0.00 | 0.01 | 0.01 | 86 | 1012.8 |
| 20260506012432 | 60 | 239 | 4.3 | 7.0 | 0.00 | 0.01 | 0.01 | 86 | 1012.8 |
| 20260506011936 | 60 | 301 | 1.7 | 6.1 | 0.00 | 0.01 | 0.01 | 86 | 1012.7 |
| 20260506010929 | 61 | 328 | 0.9 | 5.2 | 0.00 | 0.01 | 0.01 | 86 | 1012.6 |
| 20260506010426 | 61 | 235 | 1.7 | 5.2 | 0.00 | 0.01 | 0.01 | 86 | 1012.7 |
| 20260506010358 | 61 | 307 | 3.5 | 7.0 | 0.00 | 0.01 | 0.01 | 86 | 1012.5 |
| 20260506005924 | 61 | 236 | 0.9 | 7.0 | 0.00 | 0.01 | 0.01 | 86 | 1012.6 |
| 20260506005649 | 61 | 274 | 1.7 | 7.0 | 0.00 | 0.01 | 0.01 | 86 | 1012.5 |
| 20260506005428 | 61 | 223 | 0.9 | 7.0 | 0.00 | 0.01 | 0.01 | 86 | 1012.6 |
| 20260506004431 | 61 | 285 | 4.3 | 7.0 | 0.00 | 0.01 | 0.01 | 86 | 1012.6 |
| 20260506003445 | 61 | 244 | 2.6 | 7.0 | 0.00 | 0.01 | 0.01 | 86 | 1012.6 |
| 20260506002929 | 61 | 266 | 0.9 | 6.1 | 0.00 | 0.01 | 0.01 | 86 | 1012.4 |
| 20260506001917 | 61 | 276 | 2.6 | 5.2 | 0.00 | 0.01 | 0.01 | 86 | 1012.4 |
| 20260506001416 | 61 | 290 | 0.0 | 7.0 | 0.00 | 0.01 | 0.01 | 86 | 1012.4 |
| 20260506000915 | 61 | 324 | 0.9 | 7.0 | 0.00 | 0.01 | 0.01 | 86 | 1012.5 |
| 20260506000416 | 62 | 264 | 1.7 | 7.0 | 0.00 | 0.01 | 0.01 | 86 | 1012.3 |
| 20260506000255 | 62 | 277 | 0.9 | 5.2 | 0.00 | 0.01 | 0.01 | 85 | 1012.4 |
| 20260505235923 | 62 | 256 | 1.7 | 7.0 | 0.00 | 0.01 | 0.01 | 86 | 1012.3 |
| 20260505235009 | 62 | 224 | 0.0 | 1.7 | 0.00 | 0.01 | 0.01 | 82 | 1012.2 |
| 20260505234919 | 63 | 254 | 0.9 | 3.5 | 0.00 | 0.01 | 0.01 | 83 | 1012.1 |
| 20260505233908 | 62 | 176 | 0.0 | 2.6 | 0.00 | 0.01 | 0.01 | 83 | 1012.2 |
| 20260505233408 | 62 | 164 | 0.9 | 3.5 | 0.00 | 0.01 | 0.01 | 83 | 1012.4 |
| 20260505232951 | 63 | 150 | 1.7 | 3.5 | 0.00 | 0.01 | 0.01 | 82 | 1012.5 |
| 20260505232919 | 62 | 229 | 1.7 | 3.5 | 0.00 | 0.01 | 0.01 | 83 | 1012.3 |
| 20260505231904 | 62 | 151 | 0.0 | 3.5 | 0.00 | 0.01 | 0.01 | 83 | 1012.3 |
| 20260505231403 | 62 | 69 | 1.7 | 5.2 | 0.00 | 0.01 | 0.01 | 83 | 1012.3 |
| 20260505230901 | 62 | 183 | 3.5 | 5.2 | 0.00 | 0.01 | 0.01 | 82 | 1012.2 |
| 20260505230402 | 63 | 169 | 1.7 | 6.1 | 0.00 | 0.01 | 0.01 | 82 | 1012.4 |
| 20260505225859 | 63 | 184 | 3.5 | 6.1 | 0.00 | 0.01 | 0.01 | 82 | 1012.3 |
| 20260505225400 | 63 | 165 | 1.7 | 3.5 | 0.00 | 0.01 | 0.01 | 82 | 1012.4 |
| 20260505224857 | 63 | 183 | 1.7 | 5.2 | 0.00 | 0.01 | 0.01 | 81 | 1012.4 |
| 20260505224358 | 64 | 174 | 1.7 | 5.2 | 0.00 | 0.01 | 0.01 | 81 | 1012.5 |
| 20260505223857 | 64 | 243 | 1.7 | 3.5 | 0.00 | 0.01 | 0.01 | 81 | 1012.2 |
| 20260505223428 | 64 | 290 | 0.0 | 2.6 | 0.00 | 0.01 | 0.01 | 78 | 1012.4 |
| 20260505223402 | 65 | 303 | 0.0 | 0.9 | 0.00 | 0.01 | 0.01 | 78 | 1012.3 |
| 20260505222354 | 64 | 309 | 0.0 | 2.6 | 0.00 | 0.01 | 0.01 | 79 | 1012.3 |
| 20260505221853 | 64 | 225 | 0.9 | 6.1 | 0.00 | 0.01 | 0.01 | 79 | 1012.4 |
| 20260505221350 | 64 | 274 | 1.7 | 6.1 | 0.00 | 0.01 | 0.01 | 79 | 1012.4 |
| 20260505220852 | 64 | 242 | 0.0 | 3.5 | 0.00 | 0.01 | 0.01 | 79 | 1012.6 |
| 20260505220349 | 63 | 238 | 0.9 | 5.2 | 0.00 | 0.01 | 0.01 | 80 | 1012.6 |
| 20260505215848 | 64 | 347 | 0.0 | 5.2 | 0.00 | 0.01 | 0.01 | 80 | 1012.5 |
| 20260505215347 | 64 | 356 | 1.7 | 2.6 | 0.00 | 0.01 | 0.01 | 80 | 1012.5 |
| 20260505214848 | 63 | 318 | 0.9 | 2.6 | 0.00 | 0.01 | 0.01 | 81 | 1012.4 |
| 20260505214838 | 62 | 39 | 2.6 | 7.0 | 0.00 | 0.01 | 0.01 | 83 | 1012.6 |
| 20260505214500 | 63 | 10 | 2.6 | 6.1 | 0.00 | 0.01 | 0.01 | 83 | 1012.8 |
| 20260505214407 | 62 | 5 | 0.9 | 7.0 | 0.00 | 0.01 | 0.01 | 82 | 1012.6 |
| 20260505212843 | 62 | 35 | 1.7 | 5.2 | 0.00 | 0.01 | 0.01 | 83 | 1012.8 |
| 20260505212339 | 62 | 65 | 0.0 | 5.2 | 0.00 | 0.01 | 0.01 | 84 | 1013.0 |
| 20260505211828 | 62 | 350 | 1.7 | 9.6 | 0.00 | 0.01 | 0.01 | 83 | 1012.7 |
| 20260505211327 | 62 | 52 | 1.7 | 9.6 | 0.00 | 0.01 | 0.01 | 84 | 1012.9 |
| 20260505210830 | 62 | 52 | 5.2 | 7.8 | 0.00 | 0.01 | 0.01 | 83 | 1012.8 |
| 20260505210325 | 63 | 48 | 2.6 | 7.8 | 0.00 | 0.01 | 0.01 | 82 | 1012.8 |
| 20260505205824 | 62 | 44 | 1.7 | 3.5 | 0.00 | 0.01 | 0.01 | 82 | 1012.8 |
| 20260505205323 | 63 | 84 | 0.9 | 3.5 | 0.00 | 0.01 | 0.01 | 82 | 1012.7 |
| 20260505204822 | 63 | 58 | 0.9 | 6.1 | 0.00 | 0.01 | 0.01 | 81 | 1012.7 |
| 20260505204323 | 63 | 26 | 1.7 | 6.1 | 0.00 | 0.01 | 0.01 | 83 | 1012.7 |
| 20260505203821 | 63 | 38 | 0.9 | 6.1 | 0.00 | 0.01 | 0.01 | 82 | 1012.8 |
| 20260505203320 | 63 | 324 | 0.9 | 1.7 | 0.00 | 0.01 | 0.01 | 81 | 1012.8 |
| 20260505202819 | 63 | 321 | 0.0 | 2.6 | 0.00 | 0.01 | 0.01 | 81 | 1012.7 |
| 20260505202721 | 62 | 247 | 0.0 | 3.5 | 0.00 | 0.01 | 0.01 | 83 | 1012.8 |
| 20260505202327 | 63 | 210 | 0.9 | 3.5 | 0.00 | 0.01 | 0.01 | 82 | 1012.8 |
| 20260505201318 | 63 | 187 | 0.9 | 6.1 | 0.00 | 0.01 | 0.01 | 81 | 1013.0 |
| 20260505200815 | 62 | 182 | 0.9 | 6.1 | 0.00 | 0.01 | 0.01 | 83 | 1013.1 |
| 20260505200325 | 62 | 247 | 1.7 | 5.2 | 0.00 | 0.01 | 0.01 | 84 | 1013.3 |
| 20260505200313 | 63 | 219 | 2.6 | 5.2 | 0.00 | 0.01 | 0.01 | 83 | 1013.1 |
| 20260505195937 | 61 | 289 | 1.7 | 2.6 | 0.00 | 0.01 | 0.01 | 82 | 1013.1 |
| 20260505195831 | 62 | 265 | 0.9 | 5.2 | 0.00 | 0.01 | 0.01 | 83 | 1013.2 |
| 20260505194311 | 61 | 286 | 0.9 | 6.1 | 0.00 | 0.01 | 0.01 | 85 | 1013.2 |
| 20260505193808 | 61 | 289 | 1.7 | 6.1 | 0.00 | 0.01 | 0.01 | 86 | 1013.2 |
| 20260505193308 | 62 | 301 | 4.3 | 5.2 | 0.00 | 0.01 | 0.01 | 85 | 1013.4 |
| 20260505192809 | 61 | 300 | 0.9 | 5.2 | 0.00 | 0.01 | 0.01 | 85 | 1013.5 |
| 20260505192310 | 62 | 261 | 0.9 | 5.2 | 0.00 | 0.01 | 0.01 | 85 | 1013.3 |
| 20260505191807 | 62 | 324 | 0.9 | 5.2 | 0.00 | 0.01 | 0.01 | 84 | 1013.3 |
| 20260505191305 | 62 | 67 | 0.9 | 5.2 | 0.00 | 0.01 | 0.01 | 85 | 1013.0 |
| 20260505190805 | 61 | 235 | 0.9 | 3.5 | 0.00 | 0.01 | 0.01 | 85 | 1013.3 |
| 20260505190300 | 61 | 228 | 0.0 | 2.6 | 0.00 | 0.01 | 0.01 | 85 | 1013.0 |
| 20260505185759 | 61 | 295 | 0.9 | 5.2 | 0.00 | 0.01 | 0.01 | 84 | 1013.1 |
| 20260505185344 | 60 | 38 | 0.0 | 3.5 | 0.00 | 0.01 | 0.01 | 86 | 1013.2 |
| 20260505185310 | 61 | 249 | 1.7 | 5.2 | 0.00 | 0.01 | 0.01 | 85 | 1013.0 |
| 20260505184254 | 60 | 246 | 0.9 | 3.5 | 0.00 | 0.01 | 0.01 | 87 | 1013.2 |
| 20260505183755 | 60 | 355 | 0.0 | 2.6 | 0.00 | 0.01 | 0.01 | 88 | 1013.2 |
| 20260505183255 | 60 | 323 | 1.7 | 1.7 | 0.00 | 0.01 | 0.01 | 86 | 1013.2 |
| 20260505182826 | 59 | 184 | 0.9 | 3.5 | 0.00 | 0.01 | 0.01 | 89 | 1013.2 |
| 20260505182803 | 59 | 260 | 0.0 | 3.5 | 0.00 | 0.01 | 0.01 | 87 | 1013.2 |
| 20260505181750 | 59 | 179 | 1.7 | 1.7 | 0.00 | 0.01 | 0.01 | 88 | 1013.2 |
| 20260505181249 | 59 | 312 | 0.9 | 0.9 | 0.00 | 0.01 | 0.01 | 88 | 1013.1 |
| 20260505180751 | 58 | 318 | 0.0 | 1.7 | 0.00 | 0.01 | 0.01 | 89 | 1013.1 |
| 20260505180248 | 59 | 256 | 0.9 | 1.7 | 0.00 | 0.01 | 0.01 | 90 | 1013.1 |
| 20260505175747 | 58 | 310 | 0.0 | 0.9 | 0.00 | 0.01 | 0.01 | 90 | 1013.1 |
| 20260505175245 | 58 | 309 | 0.0 | 0.9 | 0.00 | 0.01 | 0.01 | 89 | 1013.1 |
| 20260505174744 | 59 | 6 | 0.0 | 0.9 | 0.00 | 0.01 | 0.01 | 89 | 1012.9 |
| 20260505174243 | 58 | 324 | 0.0 | 1.7 | 0.00 | 0.01 | 0.01 | 89 | 1013.0 |
| 20260505173742 | 58 | 327 | 0.0 | 2.6 | 0.00 | 0.01 | 0.01 | 89 | 1013.0 |
| 20260505173404 | 59 | 311 | 0.9 | 2.6 | 0.00 | 0.01 | 0.01 | 89 | 1012.9 |
| 20260505172953 | 55 | 256 | 0.9 | 5.2 | 0.00 | 0.00 | 0.00 | 85 | 1012.7 |
| 20260505172944 | 57 | 14 | 0.9 | 3.5 | 0.00 | 0.00 | 0.00 | 87 | 1011.8 |
| 20260505172901 | 61 | 254 | 2.6 | 5.2 | 0.00 | 0.00 | 0.00 | 75 | 1011.2 |
| 20260505172740 | 59 | 66 | 0.0 | 2.6 | 0.00 | 0.01 | 0.01 | 89 | 1012.8 |
| 20260505172239 | 59 | 328 | 0.9 | 2.6 | 0.00 | 0.01 | 0.01 | 86 | 1012.6 |
| 20260505171739 | 59 | 358 | 0.0 | 1.7 | 0.00 | 0.01 | 0.01 | 88 | 1012.7 |
| 20260505171322 | 59 | 32 | 0.0 | 1.7 | 0.00 | 0.01 | 0.01 | 86 | 1012.5 |
| 20260505170857 | 62 | 299 | 0.9 | 7.8 | 0.00 | 0.00 | 0.00 | 78 | 1011.5 |
| 20260505170737 | 59 | 4 | 0.0 | 1.7 | 0.00 | 0.01 | 0.01 | 87 | 1012.7 |
| 20260505170658 | 63 | 288 | 3.5 | 8.7 | 0.00 | 0.00 | 0.00 | 75 | 1011.5 |
| 20260505170646 | 63 | 288 | 2.6 | 7.0 | 0.00 | 0.00 | 0.00 | 75 | 1012.2 |
| 20260505170603 | 46 | 126 | 0.0 | 0.0 | 0.00 | 0.00 | 0.00 | 99 | 1011.3 |
| 20260505170235 | 59 | 309 | 0.0 | 1.7 | 0.00 | 0.01 | 0.01 | 87 | 1012.6 |
| 20260505165734 | 59 | 350 | 0.0 | 0.9 | 0.00 | 0.01 | 0.01 | 86 | 1012.6 |
| 20260505165233 | 59 | 306 | 0.0 | 0.9 | 0.00 | 0.01 | 0.01 | 87 | 1012.5 |
| 20260505164853 | 58 | 276 | 0.0 | 0.9 | 0.00 | 0.01 | 0.01 | 87 | 1012.5 |
| 20260505164743 | 58 | 276 | 0.0 | 0.9 | 0.00 | 0.01 | 0.01 | 87 | 1012.7 |
| 20260505163730 | 58 | 275 | 0.0 | 0.9 | 0.00 | 0.01 | 0.01 | 86 | 1012.5 |
| 20260505163229 | 58 | 174 | 0.0 | 1.7 | 0.00 | 0.01 | 0.01 | 86 | 1012.6 |
| 20260505162824 | 58 | 181 | 0.9 | 1.7 | 0.00 | 0.01 | 0.01 | 86 | 1012.5 |
| 20260505162350 | 55 | 253 | 0.9 | 3.5 | 0.00 | 0.00 | 0.00 | 89 | 1011.0 |
| 20260505162230 | 57 | 245 | 0.0 | 0.9 | 0.00 | 0.01 | 0.01 | 86 | 1012.2 |
| 20260505162200 | 56 | 215 | 0.9 | 6.1 | 0.00 | 0.00 | 0.00 | 86 | 1010.7 |
| 20260505161726 | 57 | 245 | 0.0 | 1.7 | 0.00 | 0.01 | 0.01 | 86 | 1012.4 |
| 20260505161226 | 56 | 245 | 0.0 | 2.6 | 0.00 | 0.01 | 0.01 | 87 | 1012.3 |
| 20260505160724 | 56 | 198 | 0.0 | 2.6 | 0.00 | 0.01 | 0.01 | 88 | 1012.5 |
| 20260505160224 | 56 | 202 | 1.7 | 2.6 | 0.00 | 0.01 | 0.01 | 89 | 1012.4 |
| 20260505152725 | 55 | 133 | 0.9 | 1.7 | 0.00 | 0.01 | 0.01 | 92 | 1012.2 |
| 20260505151714 | 55 | 185 | 0.9 | 3.5 | 0.00 | 0.01 | 0.01 | 93 | 1012.1 |
| 20260505151213 | 55 | 165 | 0.9 | 3.5 | 0.00 | 0.01 | 0.01 | 93 | 1012.1 |
| 20260505150712 | 55 | 141 | 0.0 | 3.5 | 0.00 | 0.01 | 0.01 | 94 | 1012.2 |
| 20260505150505 | 54 | 153 | 0.9 | 2.6 | 0.00 | 0.01 | 0.01 | 96 | 1012.0 |
| 20260505150214 | 54 | 115 | 0.0 | 3.5 | 0.00 | 0.01 | 0.01 | 94 | 1012.1 |
| 20260505130146 | 52 | 173 | 0.9 | 1.7 | 0.00 | 0.01 | 0.01 | 99 | 1011.4 |
| 20260505124644 | 52 | 221 | 0.0 | 1.7 | 0.00 | 0.01 | 0.01 | 99 | 1011.7 |
| 20260505124142 | 52 | 221 | 0.0 | 1.7 | 0.00 | 0.01 | 0.01 | 99 | 1011.9 |
| 20260505123728 | 52 | 110 | 0.0 | 0.9 | 0.00 | 0.01 | 0.01 | 99 | 1011.7 |
| 20260505123642 | 53 | 195 | 0.9 | 0.9 | 0.00 | 0.01 | 0.01 | 99 | 1011.5 |
| 20260505123337 | 53 | 150 | 0.0 | 0.9 | 0.00 | 0.01 | 0.01 | 99 | 1011.9 |
| 20260505123146 | 52 | 125 | 0.0 | 1.7 | 0.00 | 0.01 | 0.01 | 99 | 1011.7 |
| 20260505122643 | 53 | 150 | 0.9 | 1.7 | 0.00 | 0.01 | 0.01 | 99 | 1011.8 |
| 20260505122204 | 52 | 143 | 0.0 | 0.9 | 0.00 | 0.01 | 0.01 | 99 | 1011.7 |
| 20260505120641 | 53 | 141 | 0.0 | 0.9 | 0.00 | 0.01 | 0.01 | 99 | 1011.6 |
| 20260505120139 | 53 | 137 | 0.9 | 0.9 | 0.00 | 0.01 | 0.01 | 99 | 1011.8 |
| 20260505120018 | 53 | 297 | 0.0 | 0.0 | 0.01 | 0.01 | 0.01 | 99 | 1011.7 |
| 20260505115639 | 53 | 192 | 0.9 | 0.9 | 0.00 | 0.01 | 0.01 | 99 | 1011.6 |
| 20260505115136 | 53 | 296 | 0.0 | 0.0 | 0.00 | 0.01 | 0.01 | 99 | 1011.7 |
| 20260505114644 | 53 | 296 | 0.0 | 0.0 | 0.01 | 0.01 | 0.01 | 99 | 1011.7 |
| 20260505113634 | 53 | 296 | 0.0 | 0.0 | 0.01 | 0.01 | 0.01 | 99 | 1011.7 |
| 20260505113135 | 53 | 296 | 0.0 | 0.0 | 0.01 | 0.01 | 0.01 | 99 | 1011.6 |
| 20260505112631 | 53 | 296 | 0.0 | 0.0 | 0.01 | 0.01 | 0.01 | 99 | 1011.7 |
| 20260505112130 | 53 | 297 | 0.0 | 0.0 | 0.01 | 0.01 | 0.01 | 98 | 1011.8 |
| 20260505111630 | 53 | 297 | 0.0 | 0.0 | 0.01 | 0.01 | 0.01 | 98 | 1011.7 |
| 20260505111129 | 53 | 297 | 0.0 | 0.0 | 0.01 | 0.01 | 0.01 | 97 | 1011.6 |
| 20260505110631 | 53 | 297 | 0.0 | 0.9 | 0.01 | 0.01 | 0.01 | 97 | 1011.6 |
| 20260505110126 | 53 | 297 | 0.0 | 0.9 | 0.00 | 0.00 | 0.00 | 96 | 1011.7 |
| 20260505102123 | 53 | 263 | 0.0 | 1.7 | 0.00 | 0.00 | 0.00 | 93 | 1011.7 |
| 20260505101657 | 54 | 313 | 0.0 | 2.6 | 0.00 | 0.00 | 0.00 | 90 | 1011.9 |
| 20260505101613 | 53 | 283 | 0.9 | 1.7 | 0.00 | 0.00 | 0.00 | 93 | 1011.9 |
| 20260505101115 | 53 | 308 | 0.0 | 1.7 | 0.00 | 0.00 | 0.00 | 93 | 1011.9 |
| 20260505100749 | 54 | 279 | 0.0 | 2.6 | 0.00 | 0.00 | 0.00 | 88 | 1012.1 |
| 20260505100630 | 53 | 315 | 0.0 | 1.7 | 0.00 | 0.00 | 0.00 | 93 | 1012.0 |
| 20260505095608 | 53 | 301 | 0.0 | 0.9 | 0.00 | 0.00 | 0.00 | 93 | 1012.1 |
| 20260505095107 | 53 | 301 | 0.0 | 0.9 | 0.00 | 0.00 | 0.00 | 93 | 1012.1 |
| 20260505094608 | 53 | 300 | 0.0 | 0.9 | 0.00 | 0.00 | 0.00 | 92 | 1012.1 |
| 20260505094108 | 53 | 310 | 0.9 | 0.9 | 0.00 | 0.00 | 0.00 | 92 | 1011.8 |
| 20260505093604 | 54 | 312 | 0.0 | 0.9 | 0.00 | 0.00 | 0.00 | 91 | 1012.2 |
| 20260505092622 | 54 | 314 | 0.0 | 2.6 | 0.00 | 0.00 | 0.00 | 89 | 1012.0 |
| 20260505091601 | 54 | 302 | 0.0 | 2.6 | 0.00 | 0.00 | 0.00 | 88 | 1011.9 |
| 20260505091100 | 54 | 249 | 0.0 | 3.5 | 0.00 | 0.00 | 0.00 | 87 | 1012.0 |
| 20260505090559 | 54 | 244 | 0.0 | 3.5 | 0.00 | 0.00 | 0.00 | 87 | 1012.3 |
| 20260505090130 | 54 | 249 | 0.0 | 1.7 | 0.00 | 0.00 | 0.00 | 87 | 1012.4 |
| 20260505085556 | 54 | 302 | 0.9 | 2.6 | 0.00 | 0.00 | 0.00 | 87 | 1012.3 |
| 20260505085055 | 54 | 275 | 0.9 | 2.6 | 0.00 | 0.00 | 0.00 | 87 | 1012.4 |
| 20260505084555 | 54 | 240 | 1.7 | 2.6 | 0.00 | 0.00 | 0.00 | 88 | 1012.3 |
| 20260505084053 | 54 | 208 | 0.9 | 1.7 | 0.00 | 0.00 | 0.00 | 88 | 1012.3 |
| 20260505083552 | 54 | 288 | 0.0 | 0.9 | 0.00 | 0.00 | 0.00 | 87 | 1012.5 |
| 20260505083442 | 55 | 61 | 0.9 | 5.2 | 0.00 | 0.00 | 0.00 | 85 | 1012.7 |
| 20260505083051 | 54 | 298 | 0.9 | 2.6 | 0.00 | 0.00 | 0.00 | 87 | 1012.7 |
| 20260505082725 | 54 | 35 | 0.0 | 2.6 | 0.00 | 0.00 | 0.00 | 87 | 1012.6 |
| 20260505081548 | 55 | 304 | 0.0 | 3.5 | 0.00 | 0.00 | 0.00 | 86 | 1012.5 |
| 20260505081047 | 55 | 310 | 0.0 | 3.5 | 0.00 | 0.00 | 0.00 | 86 | 1012.5 |
| 20260505080546 | 55 | 310 | 0.0 | 3.5 | 0.00 | 0.00 | 0.00 | 85 | 1012.6 |
| 20260505080125 | 55 | 294 | 0.0 | 5.2 | 0.00 | 0.00 | 0.00 | 85 | 1012.6 |
| 20260505074546 | 55 | 201 | 1.7 | 3.5 | 0.00 | 0.00 | 0.00 | 85 | 1012.8 |
| 20260505074047 | 55 | 234 | 0.9 | 2.6 | 0.00 | 0.00 | 0.00 | 85 | 1012.6 |
| 20260505073550 | 55 | 151 | 0.0 | 3.5 | 0.00 | 0.00 | 0.00 | 85 | 1012.7 |
| 20260505073045 | 55 | 300 | 0.0 | 7.0 | 0.00 | 0.00 | 0.00 | 85 | 1012.6 |
| 20260505072654 | 55 | 260 | 1.7 | 2.6 | 0.00 | 0.00 | 0.00 | 86 | 1012.4 |
| 20260505072542 | 55 | 317 | 0.9 | 7.0 | 0.00 | 0.00 | 0.00 | 84 | 1012.8 |
| 20260505072043 | 55 | 335 | 1.7 | 5.2 | 0.00 | 0.00 | 0.00 | 85 | 1012.5 |
| 20260505071540 | 55 | 26 | 0.0 | 3.5 | 0.00 | 0.00 | 0.00 | 85 | 1012.6 |
| 20260505071059 | 55 | 196 | 0.9 | 3.5 | 0.00 | 0.00 | 0.00 | 86 | 1012.4 |
| 20260505070309 | 55 | 349 | 0.0 | 2.6 | 0.00 | 0.00 | 0.00 | 88 | 1012.3 |
| 20260505070038 | 55 | 338 | 0.0 | 5.2 | 0.00 | 0.00 | 0.00 | 87 | 1012.4 |
| 20260505065548 | 55 | 239 | 1.7 | 2.6 | 0.00 | 0.00 | 0.00 | 89 | 1012.4 |
| 20260505065537 | 55 | 276 | 0.0 | 5.2 | 0.00 | 0.00 | 0.00 | 87 | 1012.2 |
| 20260505065041 | 55 | 331 | 0.9 | 5.2 | 0.00 | 0.00 | 0.00 | 88 | 1012.3 |
| 20260505064041 | 55 | 276 | 0.9 | 2.6 | 0.00 | 0.00 | 0.00 | 89 | 1012.2 |
| 20260505063414 | 55 | 255 | 0.0 | 2.6 | 0.00 | 0.00 | 0.00 | 90 | 1012.1 |
| 20260505063032 | 55 | 308 | 0.0 | 2.6 | 0.00 | 0.00 | 0.00 | 89 | 1012.1 |
| 20260505062542 | 55 | 7 | 0.0 | 2.6 | 0.00 | 0.00 | 0.00 | 89 | 1012.2 |
| 20260505061757 | 55 | 301 | 1.7 | 3.5 | 0.00 | 0.00 | 0.00 | 90 | 1011.9 |
| 20260505061531 | 55 | 351 | 1.7 | 3.5 | 0.00 | 0.00 | 0.00 | 90 | 1012.1 |
| 20260505061352 | 55 | 305 | 1.7 | 2.6 | 0.00 | 0.00 | 0.00 | 90 | 1011.9 |
| 20260505061047 | 55 | 270 | 0.9 | 3.5 | 0.00 | 0.00 | 0.00 | 90 | 1012.0 |
| 20260505055525 | 55 | 303 | 0.0 | 2.6 | 0.00 | 0.00 | 0.00 | 90 | 1012.0 |
| 20260505055027 | 56 | 24 | 0.0 | 2.6 | 0.00 | 0.00 | 0.00 | 91 | 1012.1 |
| 20260505054522 | 56 | 300 | 0.0 | 2.6 | 0.00 | 0.00 | 0.00 | 91 | 1012.1 |
| 20260505054023 | 56 | 289 | 0.9 | 1.7 | 0.00 | 0.00 | 0.00 | 91 | 1012.1 |
| 20260505053521 | 56 | 312 | 0.9 | 2.6 | 0.00 | 0.00 | 0.00 | 91 | 1012.2 |
| 20260505053328 | 56 | 126 | 1.7 | 6.1 | 0.00 | 0.00 | 0.00 | 92 | 1012.5 |
| 20260505053020 | 56 | 259 | 1.7 | 2.6 | 0.00 | 0.00 | 0.00 | 92 | 1012.2 |
| 20260505052519 | 56 | 322 | 0.0 | 2.6 | 0.00 | 0.00 | 0.00 | 92 | 1012.6 |
| 20260505051516 | 56 | 7 | 0.9 | 6.1 | 0.00 | 0.00 | 0.00 | 92 | 1012.6 |
| 20260505051018 | 56 | 345 | 0.0 | 3.5 | 0.00 | 0.00 | 0.00 | 92 | 1012.4 |
| 20260505050649 | 56 | 344 | 0.0 | 2.6 | 0.00 | 0.00 | 0.00 | 91 | 1012.5 |
| 20260505050515 | 56 | 340 | 0.9 | 3.5 | 0.00 | 0.00 | 0.00 | 92 | 1012.6 |
| 20260505041505 | 56 | 287 | 0.0 | 2.6 | 0.00 | 0.00 | 0.00 | 90 | 1012.0 |
| 20260505041005 | 56 | 24 | 0.0 | 3.5 | 0.00 | 0.00 | 0.00 | 90 | 1012.0 |
| 20260505040505 | 56 | 326 | 1.7 | 3.5 | 0.00 | 0.00 | 0.00 | 90 | 1012.0 |
| 20260505040107 | 56 | 337 | 0.0 | 2.6 | 0.00 | 0.00 | 0.00 | 90 | 1011.8 |
| 20260505035502 | 57 | 285 | 0.9 | 2.6 | 0.00 | 0.00 | 0.00 | 89 | 1012.2 |
| 20260505035002 | 57 | 219 | 0.9 | 1.7 | 0.00 | 0.00 | 0.00 | 89 | 1011.9 |
| 20260505034500 | 57 | 274 | 0.0 | 3.5 | 0.00 | 0.00 | 0.00 | 88 | 1011.7 |
| 20260505034003 | 57 | 314 | 0.0 | 3.5 | 0.00 | 0.00 | 0.00 | 88 | 1011.9 |
| 20260505033051 | 58 | 276 | 0.0 | 2.6 | 0.00 | 0.00 | 0.00 | 82 | 1011.4 |
| 20260505032957 | 57 | 343 | 0.0 | 3.5 | 0.00 | 0.00 | 0.00 | 86 | 1011.6 |
| 20260505032456 | 57 | 333 | 0.0 | 3.5 | 0.00 | 0.00 | 0.00 | 86 | 1011.2 |
| 20260505032301 | 59 | 333 | 0.9 | 3.5 | 0.00 | 0.00 | 0.00 | 81 | 1011.2 |
| 20260505031951 | 58 | 289 | 0.0 | 3.5 | 0.00 | 0.00 | 0.00 | 85 | 1011.4 |
| 20260505031449 | 58 | 339 | 0.0 | 3.5 | 0.00 | 0.00 | 0.00 | 84 | 1011.3 |
| 20260505030959 | 58 | 30 | 0.9 | 2.6 | 0.00 | 0.00 | 0.00 | 83 | 1011.4 |
| 20260505030250 | 60 | 298 | 0.0 | 2.6 | 0.00 | 0.00 | 0.00 | 79 | 1011.1 |
| 20260505025950 | 59 | 316 | 0.0 | 3.5 | 0.00 | 0.00 | 0.00 | 82 | 1011.3 |
| 20260505024945 | 59 | 327 | 0.9 | 5.2 | 0.00 | 0.00 | 0.00 | 81 | 1011.3 |
| 20260505024444 | 59 | 64 | 0.9 | 5.2 | 0.00 | 0.00 | 0.00 | 81 | 1011.3 |
| 20260505023952 | 60 | 354 | 0.9 | 2.6 | 0.00 | 0.00 | 0.00 | 80 | 1011.3 |
| 20260505022941 | 60 | 143 | 0.0 | 2.6 | 0.00 | 0.00 | 0.00 | 79 | 1011.3 |
| 20260505022440 | 60 | 174 | 0.0 | 1.7 | 0.00 | 0.00 | 0.00 | 79 | 1011.2 |
| 20260505022107 | 60 | 306 | 0.0 | 1.7 | 0.00 | 0.00 | 0.00 | 78 | 1011.0 |